[[{"header":{"parameterUnit":"m.s-1","parameterCategory":1,"la1":30.2991,"la2":30.254,"lo1":-89.0895,"lo2":-89.0444,"dy":0.0017,"dx":0.0017,"nx":28,"ny":28,"refTime":"2024-10-08T21:00:00:Z","depth":0,"parameterNumber":2,"parameterNumberName":"U-component_of_WINDS"},"data":[0,0,0,0,0,0,0,0,0,0,0,0,0,0,0,0,0,0,0,0,0,0,0,0,0,0,0,0,0,0,0,0,0,0,0,0,0,0,0,0,0,0,0,0,0,0,0,0,0,0,0,0,0,0,0,0,0,0,-2.4359,-2.4359,0,-2.437,-2.437,-2.437,-2.4286,-2.4284,-2.4282,-2.4279,-2.429,-2.4292,-2.4295,0,0,0,0,0,0,0,0,0,0,0,0,0,-2.4265,-2.4268,-2.4359,-2.4359,-2.4359,-2.4369,-2.437,-2.437,-2.4287,-2.4284,-2.4281,-2.4278,-2.4289,-2.4292,-2.4295,0,0,0,0,0,0,0,0,0,0,0,0,0,-2.4294,-2.4268,-2.4359,-2.4319,-2.4315,-2.4369,-2.437,-2.437,-2.4287,-2.4284,-2.428,-2.4277,-2.4288,-2.4292,-2.4295,-2.4388,0,0,-2.4306,-2.4308,0,0,0,0,0,0,0,0,-2.4293,-2.4298,-2.4325,-2.4322,-2.4318,-2.4323,-2.434,-2.4376,-2.4288,-2.4298,-2.4279,-2.4275,-2.4304,-2.4306,-2.4315,-2.4388,-2.4389,-2.4307,-2.4309,-2.4311,-2.4312,0,0,0,0,0,0,0,-2.4291,-2.4297,-2.4363,-2.4325,-2.4321,-2.43,-2.43,-2.4347,-2.432,-2.4297,-2.4291,-2.4293,-2.4301,-2.4312,-2.4315,-2.4389,-2.4307,-2.431,-2.4312,-2.4314,-2.4538,-2.4542,0,0,0,0,0,0,-2.4294,-2.4296,-2.4363,-2.4363,-2.4296,-2.4305,-2.4305,-2.4325,-2.432,-2.4315,-2.4296,-2.4289,-2.4308,-2.4311,-2.4315,-2.4423,-2.4311,-2.4314,-2.4316,-2.4534,-2.4539,-2.4543,0,0,0,0,0,0,-2.4293,-2.4301,-2.4362,-2.4328,-2.4334,-2.431,-2.4333,-2.4327,-2.4338,-2.4319,-2.4314,-2.4312,-2.4305,-2.431,-2.437,-2.4422,-2.4316,-2.4319,-2.453,-2.4536,-2.4541,-2.464,0,0,0,0,0,0,-2.429,-2.4301,-2.4336,-2.4329,-2.4336,-2.4418,-2.4336,-2.433,-2.4345,-2.4336,-2.4333,-2.4329,-2.4303,-2.4365,-2.4374,-2.4426,-2.4322,-2.4525,-2.4532,-2.4539,-2.4632,-2.4649,-2.4663,0,0,0,0,0,-2.4287,-2.4364,-2.4338,-2.4347,-2.438,-2.4421,-2.4425,-2.4393,-2.4349,-2.4384,-2.4372,-2.4329,-2.4415,-2.4372,-2.4381,-2.4435,-2.4522,-2.453,-2.4539,-2.4626,-2.4646,-2.4662,0,0,0,0,0,0,-2.4377,-2.4362,-2.4334,-2.441,-2.4418,-2.4407,-2.445,-2.4415,-2.4435,-2.4426,-2.4385,-2.4385,-2.4453,-2.4449,-2.4402,-2.4524,-2.4461,-2.4471,-2.4524,-2.4543,-2.4558,-2.4557,-2.4325,0,0,0,0,0,-2.4406,-2.4441,-2.4426,-2.4495,-2.45,-2.4475,-2.4491,-2.4466,-2.4472,-2.4475,-2.4467,-2.4474,-2.4502,-2.4522,-2.4547,-2.4631,-2.463,-2.4672,-2.4688,-2.47,-2.471,-2.4754,-2.4773,-2.4571,-2.4571,-2.457,0,0,-2.4465,-2.4461,-2.4486,-2.4513,-2.4515,-2.4552,-2.4478,-2.452,-2.4547,-2.4481,-2.4538,-2.4532,-2.4537,-2.461,-2.4642,-2.461,-2.4766,-2.4711,-2.4721,-2.4724,-2.4765,-2.4784,-2.4801,-2.4576,-2.4575,-2.4574,0,0,-2.4593,-2.4594,-2.4651,-2.4656,-2.4661,-2.4644,-2.4658,-2.4652,-2.4646,-2.4702,-2.4654,-2.4685,-2.4735,-2.4741,-2.475,-2.488,-2.4842,-2.4889,-2.4969,-2.5013,-2.5029,-2.5043,-2.5089,-2.5106,-2.4899,-2.4899,-2.49,0,-2.4666,-2.4721,-2.4685,-2.4731,-2.4744,-2.4686,-2.4744,-2.475,-2.4763,-2.4773,-2.4737,-2.4799,-2.4798,-2.4871,-2.4903,-2.4913,-2.4927,-2.489,-2.5029,-2.5043,-2.5055,-2.5099,-2.5117,-2.4905,-2.4905,-2.4904,-2.4903,0,-2.4811,-2.4849,-2.4895,-2.491,-2.4928,-2.498,-2.4952,-2.4974,-2.4947,-2.4934,-2.4992,-2.4989,-2.5013,-2.5028,-2.5002,-2.5098,-2.5078,-2.5036,-2.4972,-2.5081,-2.5122,-2.5138,-2.4914,-2.4912,-2.491,-2.4908,0,0,-2.4996,-2.499,-2.5008,-2.5014,-2.5015,-2.5044,-2.5093,-2.5116,-2.5136,-2.5147,-2.5187,-2.5231,-2.5192,-2.5203,-2.5177,-2.5216,-2.5319,-2.5169,-2.5168,-2.5197,-2.5424,-2.5456,-2.5476,-2.5293,-2.5296,-2.5299,-2.5424,0,-2.512,-2.5204,-2.5174,-2.5259,-2.5294,-2.524,-2.5282,-2.5288,-2.5276,-2.5304,-2.5291,-2.5323,-2.5269,-2.5276,-2.5311,-2.5299,-2.5364,-2.5289,-2.533,-2.5332,-2.5331,-2.5498,-2.5531,-2.565,-2.544,-2.5442,-2.5444,0,-2.5277,-2.5295,-2.5385,-2.538,-2.5394,-2.5433,-2.5452,-2.5479,-2.5484,-2.5473,-2.5485,-2.5451,-2.5498,-2.5434,-2.5499,-2.5449,-2.5463,-2.546,-2.5464,-2.5466,-2.5395,-2.5505,-2.5687,-2.5705,-2.5469,-2.5467,-2.5465,0,-2.5403,-2.545,-2.5509,-2.5516,-2.5512,-2.5541,-2.5541,-2.5542,-2.5558,-2.5574,-2.5584,-2.5606,-2.5618,-2.5636,-2.5609,-2.5564,-2.5677,-2.561,-2.567,-2.567,-2.5696,-2.5695,-2.5883,-2.5705,-2.5705,-2.5705,-2.5704,0,-2.5546,-2.5603,-2.5566,-2.5603,-2.5665,-2.5629,-2.5691,-2.5685,-2.5686,-2.5721,-2.5674,-2.5707,-2.5669,-2.5698,-2.5677,-2.5734,-2.574,-2.5732,-2.5726,-2.5737,-2.5738,-2.5746,-2.5737,-2.5709,-2.5708,-2.5707,-2.5707,0,-2.5698,-2.5675,-2.5736,-2.5728,-2.5727,-2.5773,-2.5766,-2.5799,-2.5785,-2.5829,-2.5837,-2.5814,-2.5846,-2.582,-2.5852,-2.5837,-2.5913,-2.5895,-2.5911,-2.5907,-2.5967,-2.5962,-2.6167,-2.6192,-2.5999,-2.6001,-2.6002,0,-2.579,-2.5833,-2.5829,-2.5849,-2.5852,-2.5884,-2.5901,-2.5867,-2.5886,-2.5895,-2.5927,-2.5955,-2.5976,-2.603,-2.6016,-2.604,-2.6022,-2.6092,-2.6025,-2.6035,-2.6024,-2.6022,-2.6026,-2.6106,-2.6109,-2.611,-2.6112,0,-2.5958,-2.5944,-2.597,-2.5992,-2.6013,-2.6028,-2.604,-2.6059,-2.6024,-2.6048,-2.608,-2.6097,-2.6129,-2.6158,-2.6177,-2.6175,-2.6139,-2.6133,-2.6148,-2.616,-2.6168,-2.6164,-2.5949,-2.6129,-2.6127,-2.6126,-2.6125,-2.6124,-2.6082,-2.6118,-2.6121,-2.6151,-2.6156,-2.6169,-2.62,-2.6189,-2.6216,-2.624,-2.6218,-2.6257,-2.6261,-2.6283,-2.6286,-2.6316,-2.6287,-2.6309,-2.6314,-2.632,-2.6329,-2.6163,-2.632,-2.6319,-2.6319,-2.6318,-2.6318,0,-2.6247,-2.6247,-2.6275,-2.6293,-2.6317,-2.628,-2.6291,-2.6313,-2.6348,-2.6355,-2.6377,-2.6414,-2.6442,-2.643,-2.6454,-2.6481,-2.6464,-2.6488,-2.6486,-2.6486,-2.6354,-2.6339,-2.6501,-2.6501,-2.6501,-2.6501,-2.6501,-2.6501,-2.6336,-2.6394,-2.6381,-2.6441,-2.644,-2.6478,-2.6488,-2.6499,-2.6504,-2.6548,-2.6571,-2.6564,-2.6563,-2.6587,-2.661,-2.6606,-2.6617,-2.6648,-2.6637,-2.6514,-2.6496,-2.6479,-2.6464,-2.665,-2.6651,-2.6767,-2.6769,-2.6769]},{"header":{"parameterUnit":"m.s-1","parameterCategory":1,"la1":30.2991,"la2":30.254,"lo1":-89.0895,"lo2":-89.0444,"dy":0.0017,"dx":0.0017,"nx":28,"ny":28,"refTime":"2024-10-08T21:00:00:Z","depth":0,"parameterNumber":3,"parameterNumberName":"V-component_of_WINDS"},"data":[0,0,0,0,0,0,0,0,0,0,0,0,0,0,0,0,0,0,0,0,0,0,0,0,0,0,0,0,0,0,0,0,0,0,0,0,0,0,0,0,0,0,0,0,0,0,0,0,0,0,0,0,0,0,0,0,0,0,-5.4571,-5.4572,0,-5.4611,-5.4612,-5.4612,-5.4514,-5.4511,-5.4508,-5.4505,-5.4542,-5.4546,-5.455,0,0,0,0,0,0,0,0,0,0,0,0,0,-5.4405,-5.4409,-5.4571,-5.4572,-5.4572,-5.4611,-5.4612,-5.4612,-5.4515,-5.4511,-5.4507,-5.4504,-5.4541,-5.4545,-5.455,0,0,0,0,0,0,0,0,0,0,0,0,0,-5.4465,-5.441,-5.4571,-5.4528,-5.4525,-5.4611,-5.4612,-5.4613,-5.4516,-5.4511,-5.4506,-5.4502,-5.4539,-5.4545,-5.4551,-5.4679,0,0,-5.4568,-5.4571,0,0,0,0,0,0,0,0,-5.4461,-5.4471,-5.4534,-5.4531,-5.4528,-5.4553,-5.4567,-5.4635,-5.4517,-5.4519,-5.4505,-5.45,-5.4549,-5.4554,-5.4572,-5.4681,-5.4682,-5.4569,-5.4572,-5.4575,-5.4577,0,0,0,0,0,0,0,-5.4458,-5.4469,-5.4587,-5.4535,-5.4531,-5.4506,-5.4509,-5.4579,-5.4559,-5.4518,-5.4512,-5.4518,-5.4547,-5.4566,-5.4572,-5.4683,-5.4569,-5.4574,-5.4578,-5.458,-5.49,-5.4905,0,0,0,0,0,0,-5.4459,-5.4466,-5.4586,-5.4588,-5.4483,-5.4513,-5.4516,-5.455,-5.4558,-5.4555,-5.4522,-5.4513,-5.4559,-5.4565,-5.4573,-5.4725,-5.4575,-5.458,-5.4584,-5.4895,-5.4901,-5.4907,0,0,0,0,0,0,-5.4456,-5.4471,-5.4584,-5.4525,-5.4538,-5.452,-5.4559,-5.4553,-5.4572,-5.4561,-5.4557,-5.4546,-5.4555,-5.4564,-5.4654,-5.4724,-5.4583,-5.4588,-5.4889,-5.4897,-5.4904,-5.5029,0,0,0,0,0,0,-5.4452,-5.4471,-5.452,-5.4527,-5.4541,-5.4666,-5.4563,-5.4557,-5.4583,-5.4572,-5.4582,-5.458,-5.4552,-5.4646,-5.466,-5.473,-5.4593,-5.4883,-5.4893,-5.4902,-5.5019,-5.504,-5.5058,0,0,0,0,0,-5.4446,-5.4552,-5.4523,-5.4538,-5.4603,-5.467,-5.4678,-5.4646,-5.4589,-5.4638,-5.4631,-5.4579,-5.4714,-5.4656,-5.4671,-5.4744,-5.4878,-5.489,-5.4901,-5.501,-5.5036,-5.5058,0,0,0,0,0,0,-5.4552,-5.4552,-5.452,-5.4632,-5.4652,-5.4654,-5.4715,-5.4675,-5.471,-5.4698,-5.4655,-5.4658,-5.4756,-5.4758,-5.4693,-5.4869,-5.4786,-5.4801,-5.4864,-5.4889,-5.4908,-5.4906,-5.4598,0,0,0,0,0,-5.4589,-5.4645,-5.4641,-5.474,-5.4752,-5.4732,-5.476,-5.4734,-5.4753,-5.476,-5.4759,-5.4778,-5.4825,-5.4857,-5.4899,-5.5018,-5.5019,-5.5075,-5.5095,-5.5112,-5.5125,-5.5189,-5.5215,-5.4944,-5.4944,-5.4944,0,0,-5.4664,-5.4671,-5.4709,-5.4762,-5.4774,-5.4833,-5.474,-5.4805,-5.4848,-5.4769,-5.4855,-5.4855,-5.4873,-5.4979,-5.5025,-5.4983,-5.52,-5.5126,-5.5139,-5.5144,-5.5204,-5.5229,-5.5252,-5.4952,-5.495,-5.4949,0,0,-5.4832,-5.4843,-5.4927,-5.4942,-5.4964,-5.495,-5.497,-5.4979,-5.4976,-5.5062,-5.5005,-5.5054,-5.5135,-5.5151,-5.5169,-5.5345,-5.5299,-5.5359,-5.5463,-5.5527,-5.5548,-5.5567,-5.563,-5.5654,-5.5373,-5.5373,-5.5373,0,-5.4923,-5.501,-5.4975,-5.5045,-5.507,-5.5004,-5.5089,-5.5104,-5.5138,-5.5156,-5.5109,-5.5211,-5.5218,-5.5327,-5.537,-5.5387,-5.5409,-5.5358,-5.5548,-5.5566,-5.5583,-5.5643,-5.5667,-5.538,-5.538,-5.5379,-5.5378,0,-5.5121,-5.5182,-5.5248,-5.5284,-5.5316,-5.5393,-5.5369,-5.5405,-5.5376,-5.5367,-5.5455,-5.5462,-5.5505,-5.5528,-5.55,-5.5634,-5.5608,-5.5555,-5.5472,-5.5617,-5.5673,-5.5696,-5.5391,-5.5388,-5.5386,-5.5384,0,0,-5.5356,-5.5374,-5.5399,-5.5415,-5.5434,-5.548,-5.5554,-5.5598,-5.563,-5.5655,-5.5716,-5.5787,-5.5739,-5.5761,-5.5733,-5.5789,-5.5929,-5.5729,-5.5729,-5.5767,-5.6078,-5.6118,-5.6145,-5.5898,-5.5902,-5.5905,-5.6077,0,-5.5523,-5.5652,-5.5624,-5.575,-5.5807,-5.5745,-5.5809,-5.5828,-5.5821,-5.5867,-5.5858,-5.591,-5.5843,-5.5855,-5.5907,-5.5901,-5.5991,-5.5888,-5.5954,-5.5957,-5.5953,-5.6174,-5.6217,-5.6378,-5.6098,-5.6102,-5.6104,0,-5.5735,-5.5771,-5.5905,-5.5916,-5.5939,-5.5997,-5.6036,-5.6081,-5.61,-5.6091,-5.6116,-5.6078,-5.615,-5.6067,-5.6165,-5.6096,-5.6121,-5.6122,-5.6128,-5.6133,-5.604,-5.6187,-5.6429,-5.6454,-5.6138,-5.6135,-5.6133,0,-5.5895,-5.5977,-5.6067,-5.6083,-5.6098,-5.6141,-5.6149,-5.6164,-5.6193,-5.6226,-5.6244,-5.6284,-5.6307,-5.6339,-5.6313,-5.6254,-5.6416,-5.633,-5.6411,-5.6412,-5.6449,-5.6447,-5.6699,-5.6464,-5.6463,-5.6463,-5.6462,0,-5.6085,-5.6169,-5.614,-5.6196,-5.6288,-5.6254,-5.6345,-5.6346,-5.636,-5.6414,-5.6362,-5.6414,-5.6375,-5.6424,-5.6403,-5.6489,-5.6499,-5.6494,-5.6488,-5.65,-5.65,-5.6516,-5.6505,-5.6469,-5.6468,-5.6466,-5.6465,0,-5.628,-5.6263,-5.6358,-5.6366,-5.6369,-5.6438,-5.6443,-5.6494,-5.6484,-5.6554,-5.6568,-5.6552,-5.6606,-5.6583,-5.664,-5.6626,-5.6737,-5.6715,-5.6731,-5.6726,-5.681,-5.6803,-5.7081,-5.7117,-5.6857,-5.686,-5.6862,0,-5.6403,-5.6466,-5.6482,-5.6515,-5.6528,-5.6582,-5.6612,-5.658,-5.6613,-5.6641,-5.6689,-5.6739,-5.6778,-5.6867,-5.686,-5.6903,-5.6883,-5.6977,-5.6889,-5.6899,-5.6886,-5.6883,-5.6889,-5.6995,-5.6998,-5.7001,-5.7003,0,-5.6623,-5.6612,-5.6658,-5.6703,-5.674,-5.6773,-5.68,-5.683,-5.68,-5.684,-5.6896,-5.6926,-5.6985,-5.7035,-5.7074,-5.708,-5.7037,-5.7031,-5.7052,-5.7065,-5.7073,-5.7072,-5.6781,-5.7025,-5.7022,-5.7021,-5.702,-5.7019,-5.6786,-5.6841,-5.6861,-5.6914,-5.6932,-5.696,-5.7009,-5.7007,-5.7053,-5.71,-5.7078,-5.7144,-5.7161,-5.7209,-5.7222,-5.7271,-5.7234,-5.7265,-5.7273,-5.7281,-5.7293,-5.7065,-5.7278,-5.7277,-5.7277,-5.7276,-5.7276,0,-5.7005,-5.7015,-5.7065,-5.7107,-5.7149,-5.7106,-5.7135,-5.7173,-5.7232,-5.7253,-5.7293,-5.7357,-5.7406,-5.7404,-5.7449,-5.7489,-5.7471,-5.7502,-5.75,-5.7502,-5.7323,-5.7301,-5.7517,-5.7517,-5.7517,-5.7517,-5.7517,-5.7517,-5.7124,-5.7215,-5.7207,-5.7305,-5.7314,-5.738,-5.74,-5.7425,-5.7442,-5.7518,-5.7559,-5.7558,-5.7569,-5.7615,-5.7658,-5.7656,-5.7675,-5.7715,-5.7706,-5.7538,-5.7514,-5.7492,-5.7471,-5.7719,-5.7719,-5.7881,-5.7882,-5.7883]}]]